Вернуться в каталог

TITAN 3C TRANSTAGE DEB

LostHEO
NORAD 20102·DEBRIS·🇺🇸 United States

Запущен Dec 21, 1965 с Cape Canaveral Space Force Station

Loading…

Ближайшие Пролёты (ближайшие 24 часа)

TLE

УстаревшееSource: Space-Track

Эпоха: May 30, 2026, 04:09 UTC

1 20102U 65108AC  26150.17294889 -.00000118  00000-0  48708-3 0  9998
2 20102  26.9293  72.7851 6761603 198.5267 351.9436  2.75680630320031

Отслеживайте TITAN 3C TRANSTAGE DEB в реальном времени с AllMySat

Download on the App Store